TimeMST,TemperatureF,Dew PointF,Humidity,Sea Level PressureIn,VisibilityMPH,Wind Direction,Wind SpeedMPH,Gust SpeedMPH,PrecipitationIn,Events,Conditions,WindDirDegrees,DateUTC
12:53 AM,28.9,27.0,92,29.75,9.0,SSW,10.4,-,N/A,,Clear,210,2013-01-28 07:53:00
1:53 AM,34.0,32.0,92,29.71,9.0,South,11.5,-,N/A,,Clear,190,2013-01-28 08:53:00
2:53 AM,35.1,32.0,89,29.69,9.0,South,13.8,-,N/A,,Clear,180,2013-01-28 09:53:00
3:53 AM,34.0,32.0,92,29.69,9.0,South,13.8,-,N/A,,Clear,190,2013-01-28 10:53:00
4:53 AM,32.0,30.0,92,29.70,7.0,South,11.5,-,N/A,,Clear,180,2013-01-28 11:53:00
5:53 AM,30.9,30.0,96,29.72,5.0,South,10.4,-,N/A,,Clear,190,2013-01-28 12:53:00
6:53 AM,33.1,30.9,92,29.70,5.0,South,17.3,-,N/A,,Clear,190,2013-01-28 13:53:00
7:53 AM,35.1,33.1,92,29.68,6.0,South,13.8,-,N/A,,Clear,180,2013-01-28 14:53:00
8:53 AM,43.0,37.9,82,29.64,10.0,South,9.2,-,N/A,,Clear,180,2013-01-28 15:53:00
9:53 AM,54.0,37.0,53,29.61,10.0,SSW,10.4,-,N/A,,Clear,200,2013-01-28 16:53:00
10:53 AM,61.0,28.0,29,29.57,10.0,SW,23.0,27.6,N/A,,Clear,220,2013-01-28 17:53:00
11:53 AM,64.0,27.0,25,29.52,10.0,South,18.4,-,N/A,,Clear,190,2013-01-28 18:53:00
12:53 PM,63.0,27.0,26,29.49,10.0,SW,18.4,25.3,N/A,,Clear,220,2013-01-28 19:53:00
1:53 PM,63.0,26.1,25,29.45,10.0,SSW,21.9,27.6,N/A,,Clear,200,2013-01-28 20:53:00
2:53 PM,66.0,24.1,20,29.42,10.0,SSW,19.6,26.5,N/A,,Clear,210,2013-01-28 21:53:00
3:53 PM,64.9,19.9,18,29.43,10.0,SW,21.9,38.0,N/A,,Clear,230,2013-01-28 22:53:00
4:53 PM,48.9,34.0,56,29.52,10.0,North,26.5,33.4,N/A,,Mostly Cloudy,350,2013-01-28 23:53:00
5:00 PM,46.4,33.8,62,29.55,10.0,North,25.3,33.4,N/A,,Mostly Cloudy,350,2013-01-29 00:00:00
5:46 PM,39.2,33.8,81,29.60,10.0,NNW,24.2,31.1,N/A,,Mostly Cloudy,330,2013-01-29 00:46:00
5:53 PM,37.9,33.1,83,29.62,10.0,NNW,24.2,32.2,N/A,,Overcast,340,2013-01-29 00:53:00
5:57 PM,37.4,33.8,87,29.61,10.0,NNW,19.6,32.2,N/A,,Overcast,340,2013-01-29 00:57:00
6:53 PM,37.0,33.1,86,29.68,10.0,NNW,13.8,20.7,N/A,,Overcast,340,2013-01-29 01:53:00
7:49 PM,33.8,32.0,93,29.69,10.0,NNW,19.6,-,N/A,,Overcast,330,2013-01-29 02:49:00
7:53 PM,34.0,32.0,92,29.71,8.0,NNW,21.9,28.8,N/A,,Overcast,330,2013-01-29 02:53:00
8:53 PM,32.0,30.9,96,29.70,5.0,North,17.3,24.2,N/A,,Overcast,360,2013-01-29 03:53:00
9:40 PM,32.0,30.2,93,29.69,10.0,North,15.0,23.0,N/A,,Overcast,360,2013-01-29 04:40:00
9:53 PM,32.0,30.0,92,29.66,10.0,North,17.3,-,N/A,,Overcast,360,2013-01-29 04:53:00
10:53 PM,32.0,28.0,85,29.67,10.0,NNW,12.7,-,N/A,,Overcast,340,2013-01-29 05:53:00
11:26 PM,30.2,26.6,86,29.70,10.0,North,12.7,-,N/A,,Overcast,10,2013-01-29 06:26:00
11:53 PM,30.9,27.0,85,29.66,10.0,North,-9999.0,-,N/A,,Overcast,0,2013-01-29 06:53:00